Hourly Data Report for March 01, 2021

OTTAWA INTL A
ONTARIO
Current Station Operator: NAVCAN

45°19'00.000" N
75°40'00.000" W
114.90 m
6106001
71628
YOW

Download Data

Hourly Data (March 2021)
Hourly Data Report for March 1, 2021
TIME
LST
Temp Definition
°C
Dew Point Definition
°C
Rel Hum Definition
%
Precip. Amount Definition
mm

Wind Dir Definition
10's deg

Wind Spd Definition
km/h
Visibility Definition
km
Stn Press Definition
kPa
Hmdx Definition


Wind Chill Definition


Weather Definition


00:00 4.3 0.6 77   16 26 24.1 98.84     LegendNANA
01:00 4.0 0.5 78   16 23 24.1 98.67     Cloudy
02:00 3.2 1.6 89   18 20 16.1 98.55     Rain
03:00 2.7 2.1 96   19 9 8.1 98.55     Drizzle,Fog
04:00 3.7 3.2 96   21 19 9.7 98.50     Drizzle,Fog
05:00 3.2 2.8 97   21 17 16.1 98.46     LegendNANA
06:00 3.2 2.6 96   21 18 16.1 98.53     LegendNANA
07:00 2.8 1.5 91   25 22 24.1 98.61     Mostly Cloudy
08:00 2.9 -0.5 79   25 27 24.1 98.66     LegendNANA
09:00 2.8 -0.7 78   23 25 24.1 98.74     LegendNANA
10:00 2.7 -1.8 72   25 22 24.1 98.75     Mostly Cloudy
11:00 0.6 -3.8 72   29 37 24.1 98.86     LegendNANA
12:00 -1.2 -8.3 58   29 41 24.1 98.94   -9 LegendNANA
13:00 -2.3 -9.8 57   31 52 24.1 98.99   -11 Mostly Cloudy
14:00 -3.3 -10.7 57   29 47 24.1 99.04   -12 LegendNANA
15:00 -4.4 -12.8 52   30 45 24.1 99.15   -14 LegendNANA
16:00 -5.5 -14.7 49   30 34 24.1 99.20   -14 Mainly Clear
17:00 -6.4 -15.7 48   33 36 24.1 99.20   -16 LegendNANA
18:00 -8.0 -15.1 57   34 41 24.1 99.41   -18 LegendNANA
19:00 -9.7 -18.9 48   30 44 24.1 99.63   -21 Cloudy
20:00 -11.7 -21.4 45   31 45 24.1 99.80   -24 LegendNANA
21:00 -13.2 -22.6 46   30 34 24.1 99.98   -24 LegendNANA
22:00 -14.7 -23.8 47   31 46 24.1 100.14   -28 Mainly Clear
23:00 -15.6 -23.8 50   30 46 24.1 100.25   -29 LegendNANA

Notes on Data Quality.

Legend

  • E = Estimated
  • M = Missing
  • NA = Not Available*
  • [empty] = Indicates an unobserved value
Date modified: